Regional Weather Roundup
Issued by NWS Charleston, SC

Home | Current Version | Previous Version | Text Only | Print | Product List | Glossary On
Versions: 1 2 3 4 5 6 7 8 9 10 11 12 13 14 15 16 17 18 19 20 21 22 23 24 25 26 27 28 29 30 31 32 33 34 35 36 37 38 39 40 41 42 43 44 45 46 47 48 49 50
000
ASUS42 KCHS 280027
RWRCHS

REGIONAL WEATHER ROUNDUP
NATIONAL WEATHER SERVICE CHARLESTON SC
800 PM EDT MON MAR 27 2017

NOTE: "FAIR" INDICATES FEW OR NO CLOUDS BELOW 12,000 FEET WITH NO
SIGNIFICANT WEATHER AND/OR OBSTRUCTIONS TO VISIBILITY.

NOT ALL STATIONS ARE QUALITY CONTROLLED. USE DATA WITH CAUTION...
ESPECIALLY DEWPOINT OBSERVATIONS.

SCZ027-030-031-034>040-042>050-280100-
...SOUTHEAST SOUTH CAROLINA...

CITY           SKY/WX    TMP DP  RH WIND       PRES   REMARKS
N CHARLESTON   MOCLDY    68  57  68 S9        30.02S
6HR MIN TEMP:  68; 6HR MAX TEMP:  81;

WATERFRONT PRK   N/A     68  61  78 S7        30.01F
JOHNS ISLAND   FAIR      66  61  82 S7        30.03S
PINOPOLIS        N/A     72  61  68 VRB3      29.93S
MONCKS CORNER  FAIR      68  55  64 S9        30.01S
SUMMERVILLE    FAIR      68  59  73 S5        30.02S
BEAUFORT MCAS  PTCLDY    69  62  78 S6        30.01F
6HR MIN TEMP:  69; 6HR MAX TEMP:  79;

BEAUFORT ARPT  FAIR      66  59  77 S8        30.01S
HILTON HEAD IS PTCLDY    66  61  82 S9G15     30.02F
WALTERBORO     CLEAR     68  59  73 S6        30.02R
ALLENDALE      FAIR      73  63  68 SE8       29.98R

...SOUTHERN MIDLANDS AND PEE DEE...

CITY           SKY/WX    TMP DP  RH WIND       PRES   REMARKS
GEORGETOWN     MOCLDY    66  55  68 S6        30.04S
KINGSTREE      FAIR      70  55  60 SE9G16    30.00S
ORANGEBURG     PTCLDY    73  61  65 S9        29.98R
6HR MIN TEMP:  73; 6HR MAX TEMP:  82;

BARNWELL       FAIR      75  64  69 S9        29.98R
AIKEN          MOCLDY    70  61  73 E3        30.00S
MANNING        FAIR      68  61  77 S5        30.00S
COLUMBIA       MOCLDY    74  58  57 SE3       29.95F
6HR MIN TEMP:  74; 6HR MAX TEMP:  83;

SUMTER         CLOUDY    74  59  60 S9        29.95S
6HR MIN TEMP:  74; 6HR MAX TEMP:  81; 6HR PCP: TRACE;

FLORENCE       CLOUDY    72  61  68 SE12      29.99R
6HR MIN TEMP:  72; 6HR MAX TEMP:  81; 6HR PCP: TRACE;

MYRTLE BEACH   CLEAR     68  57  68 S14       30.03F
N MYRTLE BEACH CLEAR     66  59  78 S8        30.03S
6HR MIN TEMP:  66; 6HR MAX TEMP:  74;


$$

GAZ063-065-086>088-099>101-113>116-118-119-134>141-150-280100-
...SOUTHEAST GEORGIA...

CITY           SKY/WX    TMP DP  RH WIND       PRES   REMARKS
SAVANNAH ARPT  MOCLDY    70  56  61 S14       30.01S
6HR MIN TEMP:  70; 6HR MAX TEMP:  81;

HUNTER AAF     PTCLDY    68  62  80 S5        29.99S
6HR MIN TEMP:  68; 6HR MAX TEMP:  80;

FORT STEWART   PTCLDY    71  56  60 SE9       29.98S
6HR MIN TEMP:  71; 6HR MAX TEMP:  82; 6HR PCP: TRACE;

STATESBORO     PTCLDY    73  64  72 SE7       29.99R
SYLVANIA       CLOUDY   N/A N/A N/A S5        30.00R
CLAXTON        FAIR     N/A N/A N/A E5        29.99R

...CSRA...CENTRAL AND FAR SOUTHEAST GEORGIA...

CITY           SKY/WX    TMP DP  RH WIND       PRES   REMARKS
THOMSON        CLEAR     74  56  54 W5        30.00S
AUGUSTA-BUSH   MOCLDY    75  58  55 S3        29.94S
6HR MIN TEMP:  75; 6HR MAX TEMP:  86;

AUGUSTA-DANIEL CLOUDY    79  54  41 S7        29.96S
SWAINSBORO     FAIR      75  57  53 CALM      29.98S
VIDALIA        MOCLDY    77  57  50 CALM      29.98S
EASTMAN        FAIR      73  47  40 CALM      29.99S
HAZLEHURST     FAIR      76  60  56 CALM      29.97S
ALMA           CLOUDY    75  60  59 SE7       29.98R
6HR MIN TEMP:  74; 6HR MAX TEMP:  83;

WAYCROSS       PTCLDY    78  65  65 SE8       29.99S
JESUP          FAIR      72  54  53 SE6       30.01R
BAXLEY         CLOUDY    77  66  69 SE5       29.99R
BRUNSWICK      PTCLDY    70  63  78 SE6       30.03S
SAINT SIMONS   PTCLDY    68  61  78 SE12      30.02S
6HR MIN TEMP:  68; 6HR MAX TEMP:  76;


$$

SCZ027-028-034-036>038-045-046-048>050-GAZ119-141-280100-
...LAKE AND SUPPLEMENTAL COASTAL OBSERVATIONS...

STATION/POSITION TIME  TEMP    WIND        PRES    WAVE   SWELL
                       AIR SEA DIR/SP/G            HT/PER HT/PER/DIR
                 (UTC) (F)     (DEG/KT/KT) (MB)    (FT/S) (FT/S/D)
WINYAH BAY       2345   68     190/  6     1017.0S
LAKE MURRAY      2330   68     120/  2/  2 1013.9F
ACE BASIN NERRS  2330   67     150/  2     1016.0F
FORT PULASKI     0000   67 64  160/  5/  8 1016.6
SAPELO ISLAND    0000   69     140/  8     1017.0

$$

ANZ835-935-AMZ111-154-330-350-352-354-370-450-454-472-280100-
...C-MAN AND BUOY OBSERVATIONS...

STATION/POSITION TIME  TEMP    WIND        PRES    WAVE   SWELL
                       AIR SEA DIR/SP/G            HT/PER HT/PER/DIR
                 (UTC) (F)     (DEG/KT/KT) (MB)    (FT/S) (FT/S/D)
BUOY 41004       2350   72 75  170/ 12/ 14 1016.4F   4/10   3/130/10
BUOY 41008       2350   66 64  150/ 10/ 10 1016.4F   4/10   3/130/10
FOLLY BEACH CMAN 0000   66     170/  8/  8 1017.4F
CAPERS NEARSHORE 2308   66     170/  6/  8 1016.9F
FRIPP NEARSHORE  0008   65 62  160/  8/ 10 1016.1F


STATION/POSITION TIME  TEMP    WIND        PRES    WAVE   SWELL
                       AIR SEA DIR/SP/G            HT/PER HT/PER/DIR
                 (UTC) (F)     (DEG/KT/KT) (MB)    (FT/S) (FT/S/D)
5E ST. MARYS GA  0000      67                N/A     3/11   2/130/11
FRYING PAN BUOY  0010   72 76  170/ 10/ 12 1017.1
BUOY 41025       2350   71 76  200/ 14/ 16 1017.5R   4/ 9   3/110/ 9
CAPE LOOKOUT NC  0000   66     160/  8/  8 1017.4F
BUOY 41002       2350   68 72  100/  8/ 12 1018.7S   6/ 9   7/120/ 9
BUOY 41010       NOT AVBL
ST AUGUSTINE FL  0000   69 72  130/  7/  8 1017.8S


$$




USA.gov is the U.S. government's official web portal to all federal, state and local government web resources and services.